KUIPER-00200

导读

KUIPER-00200是美国亚马逊“柯伊伯计划”卫星互联网星座中的一员,于2026年2月12日由法国发射入轨。柯伊伯计划旨在近地轨道部署超3200颗卫星,为全球提供高速卫星互联网服务,该卫星的成功发射是星座组网进程的组成部分,将与SpaceX星链项目形成市场竞争,推动全球宽带覆盖发展。

基本信息
目录编号:
67772
目录名称:
KUIPER-00200
国际标识:
2026-030J
轨道中心:
EARTH
卫星名称:
KUIPER-00200
卫星全名:
KUIPER-00200
卫星状态:
在轨 (已飞行124 天)
发射日期:
2026-02-12 UTC
国别 :
美国 (US)
星等 :
--
轨道信息
数据来源 国际轨道数据 AOE轨道数据
星历时间 2026-06-16T14:00:02+0800
7小时前
查看轨道信息
2026-06-10T05:00:00+0800
6天前
查看轨道信息
半长轴 6916.135km 6886.946km
偏心率 0.00038 0.0003595
轨道倾角 51.890° 51.887°
近地点辐角 60.219° 59.533°
升交点赤经 111.324° 141.071°
平近点角 353.240° 119.577°
近地点 535.369km 506.333km
远地点 540.627km 511.285km
周期 95.401分钟 94.798分钟
每日圈数 15.094115 15.190176
详细信息
使用方式:
暂无
2D轨道图
3D轨道图
轨道高度分析图
轨道倾角分析图
轨道综合分析图
查看轨道综合分析图